Year,Month,Day,Hour,Minute,Value (Times are PST for temperature in C)
2018,09,29,00,00,13.70
2018,09,29,00,01,13.70
2018,09,29,00,02,13.70
2018,09,29,00,03,13.70
2018,09,29,00,04,13.70
2018,09,29,00,05,13.70
2018,09,29,00,06,13.70
2018,09,29,00,07,13.70
2018,09,29,00,08,13.70
2018,09,29,00,09,13.70
2018,09,29,00,10,13.70
2018,09,29,00,11,13.70
2018,09,29,00,13,13.60
2018,09,29,00,14,13.60
2018,09,29,00,29,13.70
2018,09,29,00,30,13.70
2018,09,29,01,29,13.90
2018,09,29,01,30,13.90
2018,09,29,01,31,13.90
2018,09,29,01,32,14.00
2018,09,29,01,33,14.00
2018,09,29,01,34,14.00
2018,09,29,01,35,14.00
2018,09,29,01,36,14.00
2018,09,29,01,37,14.00
2018,09,29,01,38,14.00
2018,09,29,01,39,14.00
2018,09,29,01,40,13.90
2018,09,29,01,41,13.90
2018,09,29,01,42,13.90
2018,09,29,01,43,13.90
2018,09,29,01,44,13.80
2018,09,29,01,45,13.80
2018,09,29,01,46,13.80
2018,09,29,01,47,13.70
2018,09,29,01,48,13.70
2018,09,29,01,49,13.70
2018,09,29,01,50,13.70
2018,09,29,01,51,13.70
2018,09,29,01,52,13.70
2018,09,29,01,53,13.60
2018,09,29,01,54,13.60
2018,09,29,01,55,13.60
2018,09,29,01,56,13.50
2018,09,29,01,57,13.50
2018,09,29,01,58,13.50
2018,09,29,01,59,13.40
2018,09,29,02,00,13.40
2018,09,29,02,01,13.40
2018,09,29,02,03,13.30
2018,09,29,02,04,13.30
2018,09,29,02,29,13.00
2018,09,29,02,30,12.90
2018,09,29,02,31,12.90
2018,09,29,02,32,12.90
2018,09,29,02,33,12.90
2018,09,29,02,34,12.90
2018,09,29,02,35,12.90
2018,09,29,02,36,12.90
2018,09,29,02,37,12.90
2018,09,29,02,38,12.80
2018,09,29,02,39,12.80
2018,09,29,02,40,12.80
2018,09,29,02,41,12.80
2018,09,29,02,42,12.80
2018,09,29,02,43,12.80
2018,09,29,02,44,12.80
2018,09,29,02,45,12.80
2018,09,29,02,46,12.80
2018,09,29,02,47,12.80
2018,09,29,02,48,12.80
2018,09,29,02,49,12.80
2018,09,29,02,50,12.80
2018,09,29,02,52,12.90
2018,09,29,03,29,13.30
2018,09,29,03,30,13.30
2018,09,29,03,31,13.30
2018,09,29,03,32,13.30
2018,09,29,03,33,13.30
2018,09,29,03,34,13.30
2018,09,29,03,35,13.30
2018,09,29,03,36,13.30
2018,09,29,03,37,13.30
2018,09,29,03,38,13.30
2018,09,29,03,39,13.40
2018,09,29,03,40,13.40
2018,09,29,03,41,13.40
2018,09,29,03,42,13.40
2018,09,29,03,43,13.50
2018,09,29,03,44,13.50
2018,09,29,03,45,13.50
2018,09,29,03,46,13.50
2018,09,29,03,47,13.60
2018,09,29,03,48,13.60
2018,09,29,03,49,13.60
2018,09,29,03,50,13.60
2018,09,29,03,51,13.60
2018,09,29,03,52,13.60
2018,09,29,03,53,13.70
2018,09,29,03,54,13.70
2018,09,29,03,55,13.70
2018,09,29,03,56,13.70
2018,09,29,03,57,13.70
2018,09,29,03,58,13.70
2018,09,29,03,59,13.70
2018,09,29,04,00,13.70
2018,09,29,04,01,13.70
2018,09,29,04,02,13.70
2018,09,29,04,04,13.70
2018,09,29,04,29,13.60
2018,09,29,04,30,13.60
2018,09,29,04,31,13.60
2018,09,29,04,32,13.60
2018,09,29,04,33,13.60
2018,09,29,04,34,13.60
2018,09,29,04,35,13.60
2018,09,29,04,36,13.60
2018,09,29,04,37,13.60
2018,09,29,04,38,13.60
2018,09,29,04,39,13.70
2018,09,29,04,40,13.70
2018,09,29,04,41,13.70
2018,09,29,04,42,13.70
2018,09,29,04,43,13.60
2018,09,29,04,44,13.60
2018,09,29,04,45,13.60
2018,09,29,04,46,13.60
2018,09,29,04,47,13.60
2018,09,29,04,48,13.60
2018,09,29,04,49,13.60
2018,09,29,04,50,13.60
2018,09,29,04,51,13.60
2018,09,29,04,52,13.60
2018,09,29,04,53,13.60
2018,09,29,04,54,13.60
2018,09,29,04,55,13.60
2018,09,29,04,56,13.60
2018,09,29,04,57,13.60
2018,09,29,04,58,13.60
2018,09,29,04,59,13.60
2018,09,29,05,00,13.60
2018,09,29,05,01,13.60
2018,09,29,05,02,13.60
2018,09,29,05,04,13.60
2018,09,29,05,29,13.60
2018,09,29,05,30,13.60
2018,09,29,05,31,13.60
2018,09,29,05,32,13.60
2018,09,29,05,33,13.60
2018,09,29,05,34,13.60
2018,09,29,05,35,13.60
2018,09,29,05,36,13.60
2018,09,29,05,37,13.60
2018,09,29,05,38,13.60
2018,09,29,05,39,13.60
2018,09,29,05,40,13.60
2018,09,29,05,41,13.60
2018,09,29,05,42,13.60
2018,09,29,05,43,13.60
2018,09,29,05,44,13.60
2018,09,29,05,45,13.60
2018,09,29,05,46,13.60
2018,09,29,05,47,13.60
2018,09,29,05,48,13.60
2018,09,29,05,49,13.60
2018,09,29,05,50,13.60
2018,09,29,05,51,13.60
2018,09,29,05,52,13.60
2018,09,29,05,53,13.60
2018,09,29,05,54,13.60
2018,09,29,05,55,13.60
2018,09,29,05,56,13.60
2018,09,29,05,57,13.60
2018,09,29,05,58,13.60
2018,09,29,05,59,13.60
2018,09,29,06,00,13.60
2018,09,29,06,01,13.60
2018,09,29,06,02,13.60
2018,09,29,06,03,13.60
2018,09,29,06,04,13.60
2018,09,29,06,05,13.60
2018,09,29,06,07,13.60
2018,09,29,06,08,13.50
2018,09,29,06,09,13.50
2018,09,29,06,29,13.40
2018,09,29,06,30,13.40
2018,09,29,07,29,13.30
2018,09,29,07,30,13.30
2018,09,29,07,31,13.30
2018,09,29,07,32,13.30
2018,09,29,07,33,13.30
2018,09,29,07,34,13.30
2018,09,29,07,35,13.30
2018,09,29,07,36,13.30
2018,09,29,07,37,13.30
2018,09,29,07,38,13.30
2018,09,29,07,39,13.30
2018,09,29,07,40,13.30
2018,09,29,07,41,13.30
2018,09,29,07,42,13.30
2018,09,29,07,43,13.30
2018,09,29,07,44,13.30
2018,09,29,07,45,13.30
2018,09,29,07,46,13.30
2018,09,29,07,47,13.30
2018,09,29,07,48,13.30
2018,09,29,07,49,13.30
2018,09,29,07,50,13.30
2018,09,29,07,51,13.20
2018,09,29,07,52,13.20
2018,09,29,07,53,13.20
2018,09,29,07,54,13.20
2018,09,29,07,55,13.20
2018,09,29,07,56,13.20
2018,09,29,07,57,13.20
2018,09,29,07,58,13.20
2018,09,29,07,59,13.20
2018,09,29,08,00,13.20
2018,09,29,08,01,13.30
2018,09,29,08,03,13.30
2018,09,29,08,29,13.30
2018,09,29,08,30,13.30
2018,09,29,08,31,13.30
2018,09,29,08,32,13.30
2018,09,29,08,33,13.30
2018,09,29,08,34,13.30
2018,09,29,08,35,13.30
2018,09,29,08,36,13.30
2018,09,29,08,37,13.30
2018,09,29,08,38,13.30
2018,09,29,08,39,13.30
2018,09,29,08,40,13.30
2018,09,29,08,41,13.30
2018,09,29,08,42,13.30
2018,09,29,08,43,13.30
2018,09,29,08,44,13.30
2018,09,29,08,45,13.30
2018,09,29,08,46,13.30
2018,09,29,08,47,13.30
2018,09,29,08,48,13.30
2018,09,29,08,49,13.40
2018,09,29,08,50,13.40
2018,09,29,08,51,13.40
2018,09,29,08,52,13.50
2018,09,29,08,53,13.50
2018,09,29,08,54,13.60
2018,09,29,08,55,13.60
2018,09,29,08,57,13.70
2018,09,29,09,29,13.90
2018,09,29,09,30,13.90
2018,09,29,09,31,13.90
2018,09,29,09,32,13.90
2018,09,29,09,33,13.90
2018,09,29,09,34,13.90
2018,09,29,09,35,14.00
2018,09,29,09,36,14.00
2018,09,29,09,37,14.00
2018,09,29,09,38,14.00
2018,09,29,09,39,14.00
2018,09,29,09,40,14.10
2018,09,29,09,41,14.10
2018,09,29,09,42,14.10
2018,09,29,09,43,14.10
2018,09,29,09,44,14.10
2018,09,29,09,45,14.10
2018,09,29,09,46,14.20
2018,09,29,09,47,14.20
2018,09,29,09,48,14.20
2018,09,29,09,49,14.20
2018,09,29,09,50,14.20
2018,09,29,09,51,14.30
2018,09,29,09,52,14.30
2018,09,29,09,53,14.30
2018,09,29,09,54,14.30
2018,09,29,09,55,14.40
2018,09,29,09,56,14.40
2018,09,29,09,57,14.40
2018,09,29,09,58,14.40
2018,09,29,09,59,14.40
2018,09,29,10,00,14.40
2018,09,29,10,01,14.40
2018,09,29,10,02,14.40
2018,09,29,10,03,14.50
2018,09,29,10,04,14.50
2018,09,29,10,05,14.50
2018,09,29,10,07,14.60
2018,09,29,10,08,14.60
2018,09,29,10,09,14.60
2018,09,29,10,29,14.90
2018,09,29,10,30,14.90
2018,09,29,10,31,14.90
2018,09,29,10,32,14.90
2018,09,29,10,33,14.90
2018,09,29,10,34,15.00
2018,09,29,10,35,15.00
2018,09,29,10,36,15.00
2018,09,29,10,37,15.10
2018,09,29,10,38,15.10
2018,09,29,10,39,15.20
2018,09,29,10,40,15.20
2018,09,29,10,41,15.30
2018,09,29,10,42,15.30
2018,09,29,10,43,15.30
2018,09,29,10,44,15.40
2018,09,29,10,45,15.50
2018,09,29,10,46,15.50
2018,09,29,10,47,15.60
2018,09,29,10,48,15.80
2018,09,29,10,49,15.80
2018,09,29,10,50,15.80
2018,09,29,10,51,15.90
2018,09,29,10,52,16.10
2018,09,29,10,53,16.10
2018,09,29,10,54,16.20
2018,09,29,10,55,16.30
2018,09,29,10,56,16.30
2018,09,29,10,57,16.40
2018,09,29,10,58,16.40
2018,09,29,10,59,16.40
2018,09,29,11,00,16.40
2018,09,29,11,01,16.40
2018,09,29,11,02,16.40
2018,09,29,11,04,16.40
2018,09,29,11,29,16.30
2018,09,29,11,30,16.30
2018,09,29,11,31,16.30
2018,09,29,11,32,16.30
2018,09,29,11,33,16.30
2018,09,29,11,34,16.30
2018,09,29,11,35,16.30
2018,09,29,11,36,16.30
2018,09,29,11,37,16.30
2018,09,29,11,38,16.30
2018,09,29,11,39,16.30
2018,09,29,11,40,16.30
2018,09,29,11,41,16.30
2018,09,29,11,42,16.20
2018,09,29,11,43,16.20
2018,09,29,11,44,16.20
2018,09,29,11,45,16.20
2018,09,29,11,46,16.20
2018,09,29,11,47,16.20
2018,09,29,11,48,16.20
2018,09,29,11,49,16.20
2018,09,29,11,50,16.20
2018,09,29,11,51,16.20
2018,09,29,11,52,16.20
2018,09,29,11,53,16.20
2018,09,29,11,54,16.20
2018,09,29,11,55,16.20
2018,09,29,11,56,16.20
2018,09,29,11,57,16.20
2018,09,29,11,58,16.20
2018,09,29,11,59,16.20
2018,09,29,12,00,16.20
2018,09,29,12,01,16.20
2018,09,29,12,02,16.20
2018,09,29,12,03,16.20
2018,09,29,12,04,16.10
2018,09,29,12,05,16.10
2018,09,29,12,07,16.10
2018,09,29,12,29,16.90
2018,09,29,12,30,16.90
2018,09,29,13,29,16.30
2018,09,29,13,30,16.30
2018,09,29,13,31,16.30
2018,09,29,13,32,16.30
2018,09,29,13,33,16.30
2018,09,29,13,34,16.30
2018,09,29,13,35,16.30
2018,09,29,13,36,16.30
2018,09,29,13,37,16.20
2018,09,29,13,38,16.20
2018,09,29,13,39,16.20
2018,09,29,13,40,16.20
2018,09,29,13,41,16.20
2018,09,29,13,42,16.10
2018,09,29,13,43,16.10
2018,09,29,13,44,16.10
2018,09,29,13,45,16.10
2018,09,29,13,46,16.10
2018,09,29,13,47,16.10
2018,09,29,13,48,16.10
2018,09,29,13,49,16.10
2018,09,29,13,50,16.10
2018,09,29,13,51,15.90
2018,09,29,13,52,15.90
2018,09,29,13,53,15.90
2018,09,29,13,54,15.90
2018,09,29,13,55,15.90
2018,09,29,13,56,16.10
2018,09,29,13,58,16.10
2018,09,29,13,59,16.10
2018,09,29,14,29,16.70
2018,09,29,14,30,16.70
2018,09,29,14,31,16.70
2018,09,29,14,32,16.70
2018,09,29,14,33,16.80
2018,09,29,14,34,16.80
2018,09,29,14,35,16.90
2018,09,29,14,36,16.90
2018,09,29,14,37,17.00
2018,09,29,14,38,17.00
2018,09,29,14,39,17.10
2018,09,29,14,40,17.20
2018,09,29,14,41,17.20
2018,09,29,14,42,17.30
2018,09,29,14,43,17.30
2018,09,29,14,44,17.30
2018,09,29,14,45,17.30
2018,09,29,14,46,17.40
2018,09,29,14,47,17.50
2018,09,29,14,48,17.50
2018,09,29,14,49,17.60
2018,09,29,14,50,17.60
2018,09,29,14,51,17.70
2018,09,29,14,52,17.70
2018,09,29,14,53,17.70
2018,09,29,14,54,17.70
2018,09,29,14,55,17.70
2018,09,29,14,56,17.70
2018,09,29,14,57,17.70
2018,09,29,14,58,17.70
2018,09,29,14,59,17.70
2018,09,29,15,00,17.60
2018,09,29,15,01,17.60
2018,09,29,15,03,17.50
2018,09,29,15,29,16.90
2018,09,29,15,30,16.90
2018,09,29,15,31,16.90
2018,09,29,15,32,16.80
2018,09,29,15,33,16.80
2018,09,29,15,34,16.70
2018,09,29,15,35,16.70
2018,09,29,15,36,16.70
2018,09,29,15,37,16.70
2018,09,29,15,38,16.70
2018,09,29,15,39,16.70
2018,09,29,15,40,16.60
2018,09,29,15,41,16.60
2018,09,29,15,42,16.60
2018,09,29,15,43,16.60
2018,09,29,15,44,16.60
2018,09,29,15,45,16.60
2018,09,29,15,46,16.60
2018,09,29,15,47,16.60
2018,09,29,15,48,16.60
2018,09,29,15,49,16.60
2018,09,29,15,50,16.60
2018,09,29,15,51,16.60
2018,09,29,15,52,16.60
2018,09,29,15,53,16.60
2018,09,29,15,54,16.60
2018,09,29,15,55,16.60
2018,09,29,15,56,16.60
2018,09,29,15,57,16.40
2018,09,29,15,59,16.40
2018,09,29,16,29,16.30
2018,09,29,16,30,16.20
2018,09,29,16,31,16.20
2018,09,29,16,32,16.20
2018,09,29,16,33,16.20
2018,09,29,16,34,16.20
2018,09,29,16,35,16.20
2018,09,29,16,36,16.20
2018,09,29,16,37,16.20
2018,09,29,16,38,16.20
2018,09,29,16,39,16.20
2018,09,29,16,40,16.20
2018,09,29,16,41,16.20
2018,09,29,16,42,16.30
2018,09,29,16,43,16.30
2018,09,29,16,44,16.30
2018,09,29,16,45,16.30
2018,09,29,16,46,16.30
2018,09,29,16,47,16.30
2018,09,29,16,48,16.30
2018,09,29,16,49,16.30
2018,09,29,16,50,16.30
2018,09,29,16,51,16.30
2018,09,29,16,52,16.30
2018,09,29,16,53,16.30
2018,09,29,16,54,16.40
2018,09,29,16,55,16.40
2018,09,29,16,56,16.40
2018,09,29,16,57,16.40
2018,09,29,16,59,16.40
2018,09,29,17,29,16.30
2018,09,29,17,30,16.30
2018,09,29,17,31,16.30
2018,09,29,17,32,16.30
2018,09,29,17,33,16.20
2018,09,29,17,34,16.20
2018,09,29,17,35,16.20
2018,09,29,17,36,16.20
2018,09,29,17,37,16.20
2018,09,29,17,38,16.20
2018,09,29,17,39,16.20
2018,09,29,17,40,16.20
2018,09,29,17,41,16.20
2018,09,29,17,42,16.20
2018,09,29,17,43,16.20
2018,09,29,17,44,16.20
2018,09,29,17,45,16.20
2018,09,29,17,46,16.20
2018,09,29,17,47,16.20
2018,09,29,17,48,16.10
2018,09,29,17,49,16.10
2018,09,29,17,50,16.10
2018,09,29,17,51,16.10
2018,09,29,17,52,16.10
2018,09,29,17,53,16.10
2018,09,29,17,54,16.10
2018,09,29,17,55,16.10
2018,09,29,17,56,16.10
2018,09,29,17,57,16.10
2018,09,29,17,58,16.10
2018,09,29,17,59,16.10
2018,09,29,18,00,16.10
2018,09,29,18,01,16.10
2018,09,29,18,02,16.10
2018,09,29,18,04,16.10
2018,09,29,18,29,15.80
2018,09,29,18,30,15.80
2018,09,29,19,29,15.20
2018,09,29,19,30,15.20
2018,09,29,19,31,15.20
2018,09,29,19,32,15.20
2018,09,29,19,33,15.20
2018,09,29,19,34,15.10
2018,09,29,19,35,15.10
2018,09,29,19,36,15.10
2018,09,29,19,37,15.10
2018,09,29,19,38,15.10
2018,09,29,19,39,15.10
2018,09,29,19,40,15.10
2018,09,29,19,41,15.00
2018,09,29,19,42,15.00
2018,09,29,19,43,15.00
2018,09,29,19,44,15.00
2018,09,29,19,45,15.00
2018,09,29,19,46,15.00
2018,09,29,19,47,15.00
2018,09,29,19,48,15.00
2018,09,29,19,49,15.00
2018,09,29,19,50,15.00
2018,09,29,19,51,15.00
2018,09,29,19,52,15.00
2018,09,29,19,53,15.00
2018,09,29,19,54,14.90
2018,09,29,19,55,14.90
2018,09,29,19,56,14.90
2018,09,29,19,57,14.90
2018,09,29,19,58,14.90
2018,09,29,19,59,14.80
2018,09,29,20,00,14.80
2018,09,29,20,01,14.80
2018,09,29,20,02,14.80
2018,09,29,20,03,14.80
2018,09,29,20,04,14.80
2018,09,29,20,06,14.80
2018,09,29,20,29,14.20
2018,09,29,20,30,14.20
2018,09,29,20,31,14.20
2018,09,29,20,32,14.20
2018,09,29,20,33,14.20
2018,09,29,20,34,14.20
2018,09,29,20,35,14.20
2018,09,29,20,36,14.20
2018,09,29,20,37,14.20
2018,09,29,20,38,14.20
2018,09,29,20,39,14.20
2018,09,29,20,40,14.20
2018,09,29,20,41,14.20
2018,09,29,20,42,14.20
2018,09,29,20,43,14.20
2018,09,29,20,44,14.10
2018,09,29,20,45,14.10
2018,09,29,20,46,14.10
2018,09,29,20,47,14.10
2018,09,29,20,48,14.10
2018,09,29,20,49,14.10
2018,09,29,20,50,14.10
2018,09,29,20,51,14.10
2018,09,29,20,52,14.10
2018,09,29,20,53,14.10
2018,09,29,20,54,14.10
2018,09,29,20,55,14.10
2018,09,29,20,56,14.10
2018,09,29,20,57,14.10
2018,09,29,20,59,14.10
2018,09,29,21,29,14.10
2018,09,29,21,30,14.10
2018,09,29,21,31,14.10
2018,09,29,21,32,14.10
2018,09,29,21,33,14.10
2018,09,29,21,34,14.10
2018,09,29,21,35,14.10
2018,09,29,21,36,14.10
2018,09,29,21,37,14.10
2018,09,29,21,38,14.10
2018,09,29,21,39,14.10
2018,09,29,21,40,14.10
2018,09,29,21,41,14.10
2018,09,29,21,42,14.10
2018,09,29,21,43,14.10
2018,09,29,21,44,14.10
2018,09,29,21,45,14.10
2018,09,29,21,46,14.10
2018,09,29,21,47,14.10
2018,09,29,21,48,14.10
2018,09,29,21,49,14.10
2018,09,29,21,50,14.10
2018,09,29,21,51,14.10
2018,09,29,21,52,14.10
2018,09,29,21,53,14.10
2018,09,29,21,54,14.10
2018,09,29,21,55,14.10
2018,09,29,21,56,14.10
2018,09,29,21,57,14.10
2018,09,29,21,58,14.10
2018,09,29,21,59,14.10
2018,09,29,22,00,14.10
2018,09,29,22,02,14.00
2018,09,29,22,03,14.00
2018,09,29,22,04,14.00
2018,09,29,22,29,13.90
2018,09,29,22,30,13.90
2018,09,29,22,31,13.90
2018,09,29,22,32,13.90
2018,09,29,22,33,13.90
2018,09,29,22,34,13.80
2018,09,29,22,35,13.80
2018,09,29,22,36,13.80
2018,09,29,22,37,13.80
2018,09,29,22,38,13.80
2018,09,29,22,39,13.70
2018,09,29,22,40,13.70
2018,09,29,22,41,13.70
2018,09,29,22,42,13.70
2018,09,29,22,43,13.70
2018,09,29,22,44,13.60
2018,09,29,22,45,13.60
2018,09,29,22,46,13.60
2018,09,29,22,47,13.50
2018,09,29,22,48,13.50
2018,09,29,22,49,13.50
2018,09,29,22,50,13.50
2018,09,29,22,51,13.40
2018,09,29,22,52,13.40
2018,09,29,22,53,13.40
2018,09,29,22,54,13.40
2018,09,29,22,55,13.40
2018,09,29,22,56,13.30
2018,09,29,22,57,13.30
2018,09,29,22,58,13.30
2018,09,29,22,59,13.30
2018,09,29,23,00,13.30
2018,09,29,23,02,13.30
2018,09,29,23,29,13.40
2018,09,29,23,30,13.40
2018,09,29,23,31,13.40
2018,09,29,23,32,13.40
2018,09,29,23,33,13.50
2018,09,29,23,34,13.50
2018,09,29,23,35,13.40
2018,09,29,23,36,13.50
2018,09,29,23,37,13.50
2018,09,29,23,38,13.50
2018,09,29,23,39,13.50
2018,09,29,23,40,13.50
2018,09,29,23,41,13.50
2018,09,29,23,42,13.50
2018,09,29,23,43,13.50
2018,09,29,23,44,13.50
2018,09,29,23,45,13.50
2018,09,29,23,46,13.50
2018,09,29,23,47,13.50
2018,09,29,23,48,13.50
2018,09,29,23,49,13.40
2018,09,29,23,50,13.40
2018,09,29,23,51,13.40
2018,09,29,23,52,13.40
2018,09,29,23,53,13.40
2018,09,29,23,54,13.40
2018,09,29,23,55,13.30
2018,09,29,23,56,13.30
2018,09,29,23,57,13.30
2018,09,29,23,58,13.30
2018,09,29,23,59,13.30
